Cloud_Cover
2 1 0 0 0 0 0 0 5 4 0 94 71 92 58 52 99 99 77 93 8 93 100 100 100 33 65 100 100 96 99 35 47 80 22 71 5 10 5 5 5 1 3 0 0 0 0 0 0
5 3 0 16 1 1 1 0 0 4 0 59 100 100 78 99 99 86 100 62 100 83 100 100 100 55 16 92 93 100 53 80 54 49 20 11 29 44 47 30 5 3 5 0 0 0 0 0 0
12 4 0 0 5 2 2 5 0 0 0 6 100 100 100 98 91 98 100 100 100 97 100 100 100 100 84 5 6 100 100 38 34 30 27 10 17 6 5 7 7 5 4 4 4 3 0 0 0
0 5 0 0 5 2 2 4 5 5 2 0 100 100 100 54 74 100 100 100 100 100 100 100 91 56 100 5 0 6 100 100 100 100 68 99 100 96 99 10 5 5 5 6 5 5 5 4 1
0 0 0 0 0 30 0 0 94 5 5 2 0 98 100 100 84 100 100 100 100 90 92 86 100 47 69 13 5 5 81 100 100 100 100 100 100 38 5 27 14 16 9 23 5 7 5 5 0
0 0 0 0 0 5 0 0 0 4 6 72 81 32 96 42 100 80 11 100 100 100 100 89 100 98 48 38 5 5 5 6 98 98 69 100 59 20 5 5 5 4 5 5 5 5 5 2 2
0 0 0 4 0 0 0 0 0 1 6 43 23 77 78 99 78 100 100 100 100 100 100 100 100 97 23 90 11 29 5 8 52 16 31 10 17 6 5 5 5 5 5 5 5 5 5 1 4
0 0 0 4 5 0 0 0 0 0 3 3 23 7 15 100 100 100 100 100 100 100 100 100 100 100 100 100 10 74 99 68 100 89 36 87 90 41 6 5 5 2 4 2 15 6 5 5 5
0 0 0 3 22 45 5 3 0 0 2 51 6 6 16 47 100 100 100 100 100 100 100 100 100 100 100 100 100 100 100 100 100 100 100 100 100 100 100 62 6 41 4 4 2 4 5 4 5
0 0 0 0 5 79 45 5 0 0 0 72 6 99 74 68 84 100 100 100 100 100 100 100 100 100 100 100 100 100 100 100 100 100 100 96 90 95 100 100 45 3 2 1 3 5 14 35 10
0 0 0 0 0 29 70 100 61 14 1 0 18 47 36 96 100 100 100 100 100 100 100 100 100 80 97 100 100 98 100 100 69 95 82 61 51 100 49 14 36 8 5 0 0 0 7 6 4
0 0 0 0 0 1 83 16 95 68 71 33 4 100 100 98 100 100 100 100 100 100 100 100 100 100 99 100 80 88 100 95 74 100 84 99 83 16 17 54 25 5 5 4 1 3 39 20 76
0 0 0 0 0 0 0 4 42 52 93 19 4 4 37 84 100 100 100 100 100 100 100 100 100 100 100 100 42 83 100 100 100 100 100 100 100 51 30 32 23 18 42 19 29 54 81 99 100
0 0 0 0 0 0 0 0 1 0 7 100 96 62 65 93 89 100 100 100 100 100 100 100 100 100 100 100 76 100 100 100 100 100 100 100 100 100 99 98 100 100 95 100 99 100 100 100 100
0 0 0 0 0 0 0 0 0 0 0 70 100 100 93 100 100 100 47 53 64 100 100 100 100 100 97 100 100 100 98 95 100 100 100 77 97 96 68 100 100 100 100 100 100 100 100 100 100
0 0 0 0 0 0 0 0 0 2 6 53 100 100 100 100 100 100 100 100 100 100 37 93 100 100 100 100 100 100 100 100 100 100 100 100 100 80 99 100 100 100 100 100 100 100 100 100 99
0 0 0 0 0 0 0 2 2 2 2 23 100 100 100 100 100 100 93 100 100 91 69 82 94 100 100 99 100 100 100 100 100 93 85 100 100 100 100 100 100 100 100 100 100 100 100 92 67
0 0 0 0 0 0 0 0 99 100 96 0 0 64 100 100 100 100 100 100 100 95 93 93 99 100 100 100 100 100 100 100 100 100 100 100 100 100 100 100 100 100 100 100 100 100 100 100 100
0 0 0 0 0 0 0 3 79 100 97 5 55 90 100 100 100 100 100 100 100 100 100 100 100 100 100 100 100 100 100 100 100 100 100 100 100 100 100 100 100 100 100 100 100 100 100 100 77
0 0 0 0 0 0 0 4 5 80 100 72 72 94 100 100 100 100 100 100 100 100 100 100 100 100 100 100 100 100 100 100 95 97 100 100 100 100 100 100 100 96 50 72 84 100 100 95 74
0 0 0 0 0 0 0 0 21 100 100 91 85 47 99 100 100 100 100 100 100 100 100 100 100 100 100 100 100 100 100 100 100 98 66 19 42 54 23 58 95 100 98 100 97 94 80 83 67
0 0 0 3 5 4 0 0 79 100 100 100 100 100 100 100 100 100 100 100 100 100 100 100 100 100 100 99 56 100 100 100 75 84 76 69 43 76 21 20 33 96 46 4 5 1 1 2 2
0 0 0 0 0 4 5 3 12 100 100 100 100 100 100 100 100 100 100 100 100 100 100 100 100 100 100 100 100 100 100 100 96 98 93 33 25 10 5 5 5 4 5 5 0 0 0 2 4
0 0 0 0 0 0 0 5 54 97 100 100 100 100 56 87 100 89 77 98 100 100 91 92 98 100 96 63 74 100 92 90 100 99 85 85 18 5 3 1 1 0 0 0 2 20 14 4 1
0 0 0 0 0 0 0 0 2 100 90 100 100 100 98 99 100 100 97 100 98 87 27 59 64 100 100 78 56 57 26 59 46 66 55 36 10 4 5 39 6 5 0 0 0 0 0 0 0
0 0 0 0 0 0 0 0 1 92 100 100 100 100 100 100 100 100 100 73 68 87 85 100 100 100 100 97 42 63 11 32 12 5 5 14 4 1 15 76 92 51 11 0 0 6 17 15 20
0 0 0 0 0 0 0 0 0 17 100 100 96 98 100 100 100 99 93 99 98 97 100 79 95 66 56 79 100 95 10 29 10 1 0 0 4 6 5 1 62 100 94 49 94 100 100 100 100
0 0 0 0 0 0 0 0 0 0 0 5 5 17 72 97 100 100 80 75 68 4 3 5 20 24 25 39 34 48 66 69 81 75 64 33 10 4 0 0 0 23 98 99 96 98 98 100 100
0 0 0 0 0 0 0 0 0 0 0 2 32 74 52 23 25 6 2 2 0 0 27 52 83 79 80 75 91 92 96 96 99 100 100 99 99 84 20 0 0 0 34 100 100 100 100 99 100
0 0 0 0 0 0 0 0 0 0 0 0 0 0 0 3 3 0 0 0 0 22 44 78 78 52 60 86 94 100 100 100 100 100 100 100 100 54 7 0 5 5 81 100 97 19 64 97 100